Location: Lake of the Woods (North-East)
(49.6672°N, 94.8656°W)
Time: 01:47:44
(UTC-05:00)

ISS - All Passes

Search period start: 28 May 2017 00:00
Search period end: 07 June 2017 00:00
Orbit: 402 x 408 km, 51.6° (Epoch: 28 May)

Date Brightness Start Highest point End Pass type
(mag) Time Alt. Az. Time Alt. Az. Time Alt. Az.
28 May - 00:51:40 10° WNW 00:54:57 67° N 00:58:14 10° E visible
28 May - 02:28:14 10° WNW 02:31:23 43° SSW 02:34:31 10° SE visible
28 May - 20:47:03 10° SSW 20:49:55 27° SE 20:52:46 10° E daylight
28 May - 22:22:53 10° WSW 22:26:11 83° NNW 22:29:30 10° ENE visible
28 May - 23:59:35 10° WNW 00:02:51 60° N 00:06:07 10° E visible
29 May - 01:36:08 10° WNW 01:39:25 65° SSW 01:42:40 10° ESE visible
29 May - 03:13:29 10° WSW 03:15:26 15° SW 03:17:22 10° S visible
29 May - 19:55:45 10° S 19:58:03 18° SE 20:00:21 10° E daylight
29 May - 21:30:50 10° WSW 21:34:07 73° SSE 21:37:26 10° ENE daylight
29 May - 23:07:27 10° W 23:10:44 59° N 23:13:59 10° E visible
30 May - 00:44:04 10° WNW 00:47:23 90° SW 00:50:41 10° ESE visible
30 May - 02:20:54 10° W 02:23:36 23° SW 02:26:16 10° SSE visible
30 May - 19:05:24 10° SSE 19:06:14 11° SE 19:07:05 10° ESE daylight
30 May - 20:38:54 10° SW 20:42:07 49° SSE 20:45:19 10° ENE daylight
30 May - 22:15:19 10° W 22:18:36 64° N 22:21:53 10° ENE visible
30 May - 23:51:59 10° WNW 23:55:18 72° NNE 23:58:34 10° E visible
31 May - 01:28:36 10° W 01:31:40 36° SSW 01:34:43 10° SE visible
31 May - 19:47:09 10° SSW 19:50:08 32° SSE 19:53:08 10° E daylight
31 May - 21:23:09 10° W 21:26:28 76° NNW 21:29:47 10° ENE daylight
31 May - 22:59:52 10° WNW 23:03:09 62° N 23:06:26 10° E visible
01 Jun - 00:36:26 10° WNW 00:39:41 56° SSW 00:42:54 10° SE visible
01 Jun - 02:14:10 10° WSW 02:15:36 12° SW 02:17:03 10° SSW visible
01 Jun - 18:55:40 10° SSW 18:58:13 21° SE 19:00:46 10° E daylight
01 Jun - 20:31:03 10° WSW 20:34:22 83° SSE 20:37:41 10° ENE daylight
01 Jun - 22:07:44 10° W 22:10:59 58° N 22:14:16 10° E visible
01 Jun - 23:44:19 10° WNW 23:47:37 81° SSW 23:50:55 10° ESE visible
02 Jun - 01:21:16 10° W 01:23:45 20° SW 01:26:14 10° S visible
02 Jun - 18:04:44 10° SSE 18:06:21 13° SE 18:07:58 10° ESE daylight
02 Jun - 19:39:03 10° SW 19:42:18 58° SSE 19:45:33 10° ENE daylight
02 Jun - 21:15:32 10° W 21:18:49 61° N 21:22:06 10° ENE daylight
02 Jun - 22:52:12 10° WNW 22:55:30 78° NNE 22:58:48 10° ESE visible
03 Jun - 00:28:52 10° W 00:31:49 31° SSW 00:34:46 10° SSE visible
03 Jun - 18:47:10 10° SW 18:50:16 38° SSE 18:53:22 10° E daylight
03 Jun - 20:23:21 10° W 20:26:39 71° NNW 20:29:57 10° ENE daylight
03 Jun - 22:00:03 10° WNW 22:03:21 64° N 22:06:38 10° E visible
03 Jun - 23:36:37 10° WNW 23:39:49 48° SSW 23:43:00 10° SE visible
04 Jun - 01:15:17 10° SW 01:15:39 10° SW 01:16:02 10° SW visible
04 Jun - 17:55:32 10° SSW 17:58:17 24° SE 18:01:02 10° E daylight
04 Jun - 19:31:12 10° WSW 19:34:30 88° N 19:37:49 10° ENE daylight
04 Jun - 21:07:53 10° WNW 21:11:09 59° N 21:14:25 10° E daylight
04 Jun - 22:44:27 10° WNW 22:47:45 71° SSW 22:51:01 10° ESE visible
05 Jun - 00:21:36 10° W 00:23:48 17° SW 00:26:00 10° S visible
05 Jun - 17:04:18 10° S 17:06:21 16° SE 17:08:25 10° E daylight
05 Jun - 18:39:05 10° WSW 18:42:22 67° SSE 18:45:40 10° ENE daylight
05 Jun - 20:15:40 10° W 20:18:56 59° N 20:22:13 10° ENE daylight
05 Jun - 21:52:17 10° WNW 21:55:36 85° NNE 21:58:54 10° ESE daylight
05 Jun - 23:29:02 10° W 23:31:51 26° SW 23:34:39 10° SSE visible
06 Jun - 17:47:07 10° SW 17:50:17 44° SSE 17:53:27 10° ENE daylight
06 Jun - 19:23:26 10° W 19:26:43 66° N 19:30:01 10° ENE daylight
06 Jun - 21:00:07 10° WNW 21:03:25 68° N 21:06:43 10° E daylight
06 Jun - 22:36:42 10° W 22:39:49 41° SSW 22:42:57 10° SE visible
